Location: Les Coudrans
(46.1056°N, 1.1158°W)
Time: 04:29:07
(UTC+00:00)

Cosmos 1777 Rocket - Visible Passes

Search period start: 15 June 2021 00:00
Search period end: 25 June 2021 00:00
Orbit: 758 x 776 km, 74.0° (Epoch: 14 June)

Date Brightness Start Highest point End Pass type
(mag) Time Alt. Az. Time Alt. Az. Time Alt. Az.
15 Jun 4.8 01:18:12 10° NW 01:22:58 35° WSW 01:24:24 30° SW visible
15 Jun 5.9 22:59:06 10° N 23:03:17 23° NE 23:07:09 11° ESE visible
16 Jun 4.1 00:40:32 10° NNW 00:45:44 59° WSW 00:47:22 41° SSW visible
16 Jun 6.3 22:22:24 10° NNE 22:25:30 15° NE 22:28:36 10° E visible
17 Jun 4.0 00:03:04 10° NNW 00:08:24 85° ENE 00:10:22 40° SSE visible
17 Jun 5.9 01:47:11 10° WNW 01:49:39 13° W 01:50:35 13° WSW visible
17 Jun 6.6 21:47:00 10° NE 21:47:35 10° NE 21:48:11 10° NE visible
17 Jun 4.5 23:25:46 10° NNW 23:30:57 53° ENE 23:33:25 29° SE visible
18 Jun 5.4 01:08:33 10° NW 01:12:36 23° W 01:13:38 21° WSW visible
18 Jun 5.3 22:48:36 10° N 22:53:23 33° ENE 22:56:29 19° ESE visible
19 Jun 4.8 00:30:37 10° NW 00:35:28 37° WSW 00:36:42 33° SW visible
19 Jun 5.8 22:11:37 10° N 22:15:43 22° NE 22:19:35 11° ESE visible
19 Jun 4.1 23:52:59 10° NNW 23:58:13 62° WSW 23:59:49 42° SSW visible
20 Jun 6.3 21:34:58 10° NNE 21:37:55 15° NE 21:40:53 10° E visible
20 Jun 4.0 23:15:33 10° NNW 23:20:52 81° ENE 23:22:57 38° SSE visible
21 Jun 6.0 00:59:27 10° WNW 01:02:10 14° W 01:03:10 14° WSW visible
21 Jun 4.6 22:38:16 10° NNW 22:43:25 50° ENE 22:46:06 26° SE visible
22 Jun 5.4 00:20:57 10° NW 00:25:07 24° W 00:26:20 22° WSW visible
22 Jun 5.2 22:01:07 10° N 22:05:51 32° ENE 22:09:17 16° ESE visible
22 Jun 4.8 23:43:03 10° NW 23:47:58 39° WSW 23:49:31 32° SW visible
23 Jun 5.8 21:24:09 10° N 21:28:10 21° NE 21:32:09 10° ESE visible
23 Jun 4.1 23:05:27 10° NNW 23:10:42 65° WSW 23:12:44 37° S visible
24 Jun 6.2 20:47:33 10° NNE 20:50:21 14° NE 20:53:09 10° E visible
24 Jun 4.0 22:28:01 10° NNW 22:33:21 77° ENE 22:35:58 31° SSE visible
